Location: Pointed Rock Observatory
(32.4532°N, 111.0636°W)
Time: 16:26:35
(UTC-07:00)

Envisat - Visible Passes

Search period start: 19 July 2018 00:00
Search period end: 29 July 2018 00:00
Orbit: 764 x 766 km, 98.2° (Epoch: 19 July)

Date Brightness Start Highest point End Pass type
(mag) Time Alt. Az. Time Alt. Az. Time Alt. Az.
19 Jul 4.7 20:23:23 10° SSW 20:27:54 32° W 20:32:26 10° NW visible
21 Jul 5.6 20:50:18 10° SW 20:53:37 17° W 20:56:57 10° NW visible
22 Jul 4.2 20:11:55 10° S 20:16:42 42° W 20:21:30 10° NNW visible
24 Jul 5.3 20:38:26 10° SSW 20:42:23 23° W 20:46:20 10° NW visible
25 Jul 3.7 20:00:34 10° S 20:05:31 55° W 20:10:30 10° NNW visible
26 Jul 5.8 21:06:23 10° WSW 21:08:09 12° W 21:09:54 10° WNW visible
27 Jul 4.9 20:26:47 10° SSW 20:31:09 29° W 20:35:33 10° NW visible
28 Jul 3.3 19:49:18 10° S 19:54:20 73° WSW 19:59:25 10° NNW visible
